CST,Max TemperatureF,Mean TemperatureF,Min TemperatureF,Max Dew PointF,MeanDew PointF,Min DewpointF,Max Humidity, Mean Humidity, Min Humidity, Max Sea Level PressureIn, Mean Sea Level PressureIn, Min Sea Level PressureIn, Max VisibilityMiles, Mean VisibilityMiles, Min VisibilityMiles, Max Wind SpeedMPH, Mean Wind SpeedMPH, Max Gust SpeedMPH,PrecipitationIn, CloudCover, Events, WindDirDegrees
2014-1-1,14,11,7,10,6,1,88,81,73,30.32,30.25,30.19,10,4,0,22,17,26,0.16,8,Fog-Snow,43
2014-1-2,13,2,-9,5,0,-13,83,75,66,30.51,30.37,30.23,10,10,6,18,10,22,T,5,,336
2014-1-3,22,5,-12,14,2,-13,87,74,61,30.49,30.20,29.81,10,8,4,36,16,41,0.00,1,,184
2014-1-4,32,26,20,24,18,12,92,77,62,30.08,29.92,29.78,10,5,0,30,16,38,0.05,7,Fog-Snow,289
2014-1-5,20,5,-11,10,-3,-20,78,71,63,30.32,30.19,30.04,10,6,1,31,21,40,T,6,Rain-Snow,334
2014-1-6,-8,-12,-16,-15,-20,-25,79,68,57,30.41,30.36,30.26,10,8,2,30,20,37,0.00,2,,284
2014-1-7,6,-1,-9,-3,-9,-16,79,71,62,30.37,30.32,30.24,10,10,10,16,7,26,0.00,2,,174
2014-1-8,10,3,-4,-1,-4,-9,87,75,63,30.55,30.47,30.32,10,10,9,9,3,9,0.00,0,,337
2014-1-9,27,14,0,25,11,-6,92,79,66,30.53,30.29,30.10,10,4,1,13,8,14,T,7,Snow,122
2014-1-10,39,33,27,38,32,25,100,95,89,30.11,29.75,29.49,6,2,0,23,11,25,0.19,8,Fog-Rain,170
2014-1-11,35,32,29,34,29,24,100,88,75,29.86,29.63,29.48,10,6,1,25,16,32,0.00,7,,279
2014-1-12,45,36,26,32,28,24,92,73,53,29.86,29.69,29.55,10,9,7,31,15,37,0.00,0,,188
2014-1-13,38,34,29,33,29,25,92,81,70,29.81,29.69,29.57,10,10,6,25,10,30,0.00,3,,263
2014-1-14,35,26,17,31,22,11,89,79,69,30.04,29.80,29.60,10,7,1,40,23,47,0.04,7,Rain-Snow,269
2014-1-15,24,17,9,16,9,3,80,74,67,30.20,30.05,29.77,10,10,2,24,14,30,T,3,Snow,257
2014-1-16,36,23,10,30,17,4,81,70,58,29.86,29.67,29.55,10,9,2,37,19,46,T,6,Snow,271
2014-1-17,16,11,6,7,5,0,83,75,67,30.07,29.97,29.82,10,7,2,25,15,30,T,6,Snow,295
2014-1-18,22,14,6,19,13,3,91,84,76,29.99,29.77,29.60,10,5,0,25,12,31,0.15,6,Fog-Snow,114
2014-1-19,41,25,8,29,21,5,84,74,64,29.96,29.75,29.60,10,9,7,22,15,25,0.00,1,,244
2014-1-20,35,24,13,29,22,9,92,84,75,30.19,29.96,29.73,10,5,1,29,13,36,0.07,6,Snow,340
2014-1-21,14,6,-2,9,-4,-10,84,73,62,30.45,30.31,30.17,10,8,1,29,10,33,T,3,Snow,317
2014-1-22,16,7,-3,9,2,-12,76,68,59,30.39,30.09,29.97,10,8,1,31,17,38,T,5,Snow,286
2014-1-23,1,-3,-8,-8,-11,-15,82,72,62,30.75,30.65,30.42,10,10,10,23,14,28,0.00,0,,290
2014-1-24,32,14,-4,29,12,-8,85,67,49,30.58,29.89,29.52,10,8,1,32,20,41,0.02,5,Snow,225
2014-1-25,35,21,7,31,9,-3,92,71,49,29.96,29.76,29.50,10,10,8,37,20,47,T,3,,290
2014-1-26,35,18,1,27,11,-8,88,75,62,30.07,29.67,29.41,10,3,0,46,23,59,0.04,7,Fog-Rain-Snow,301
2014-1-27,1,-3,-8,-6,-12,-15,75,67,58,30.55,30.33,30.04,10,9,3,31,19,39,0.00,3,Snow,304
2014-1-28,11,1,-9,-2,-8,-15,79,68,57,30.53,30.43,30.31,10,10,10,21,8,25,0.00,0,,270
2014-1-29,30,15,-1,9,2,-7,69,54,39,30.29,30.14,29.90,10,10,10,26,14,35,0.00,0,,212
2014-1-30,34,24,14,27,18,8,85,66,46,30.02,29.74,29.61,10,7,0,35,21,46,0.04,5,Fog-Snow,228
2014-1-31,14,10,6,7,2,-2,80,71,61,30.25,30.16,30.07,10,10,8,15,8,18,T,3,,336